| time (UTC) | temp F | wind direction | speed MPH | gust MPH | rain 1hr in | rain 24hr in | rain mn in | humidity % | barometer mb |
| 20260505061530 | 46 | 266 | 9.0 | 15.0 | 0.00 | 0.04 | 0.00 | 78 | 1007.1 |
| 20260505060032 | 46 | 262 | 9.0 | 16.0 | 0.00 | 0.04 | 0.00 | 78 | 1006.9 |
| 20260505054537 | 46 | 258 | 8.0 | 14.0 | 0.00 | 0.04 | 0.00 | 78 | 1006.7 |
| 20260505053038 | 46 | 271 | 7.0 | 11.0 | 0.00 | 0.04 | 0.00 | 78 | 1006.5 |
| 20260505051528 | 46 | 264 | 6.0 | 11.0 | 0.00 | 0.04 | 0.00 | 78 | 1006.3 |
| 20260505041528 | 48 | 229 | 5.0 | 11.0 | 0.00 | 0.06 | 0.00 | 75 | 1005.6 |
| 20260505040028 | 48 | 265 | 3.0 | 12.0 | 0.00 | 0.06 | 0.00 | 74 | 1005.6 |
| 20260505034529 | 48 | 279 | 3.0 | 14.0 | 0.00 | 0.06 | 0.00 | 74 | 1005.3 |
| 20260505033037 | 48 | 281 | 7.0 | 14.0 | 0.00 | 0.06 | 0.00 | 74 | 1005.1 |
| 20260505031529 | 48 | 267 | 6.0 | 13.0 | 0.00 | 0.06 | 0.00 | 75 | 1004.9 |
| 20260505030029 | 48 | 256 | 5.0 | 17.0 | 0.00 | 0.06 | 0.00 | 74 | 1004.5 |
| 20260505024531 | 48 | 282 | 8.0 | 16.0 | 0.00 | 0.06 | 0.06 | 74 | 1004.3 |
| 20260505023028 | 48 | 262 | 9.0 | 20.0 | 0.00 | 0.06 | 0.06 | 74 | 1004.2 |
| 20260505021528 | 48 | 264 | 7.0 | 18.0 | 0.00 | 0.06 | 0.06 | 74 | 1003.7 |
| 20260505020029 | 48 | 256 | 6.0 | 18.0 | 0.00 | 0.06 | 0.06 | 73 | 1003.6 |
| 20260505014532 | 48 | 247 | 8.0 | 16.0 | 0.00 | 0.07 | 0.06 | 73 | 1003.5 |
| 20260505013031 | 49 | 241 | 7.0 | 17.0 | 0.00 | 0.07 | 0.06 | 72 | 1003.5 |
| 20260505011531 | 49 | 237 | 9.0 | 17.0 | 0.00 | 0.07 | 0.06 | 70 | 1003.4 |
| 20260505010031 | 50 | 242 | 9.0 | 16.0 | 0.00 | 0.07 | 0.06 | 67 | 1003.3 |
| 20260505004539 | 50 | 230 | 6.0 | 14.0 | 0.00 | 0.12 | 0.06 | 66 | 1003.3 |
| 20260505003028 | 51 | 234 | 9.0 | 21.0 | 0.00 | 0.12 | 0.06 | 64 | 1003.0 |
| 20260505001532 | 50 | 250 | 7.0 | 14.0 | 0.00 | 0.12 | 0.06 | 63 | 1002.8 |
| 20260505000034 | 50 | 216 | 7.0 | 12.0 | 0.00 | 0.12 | 0.06 | 63 | 1002.8 |
| 20260504234535 | 50 | 221 | 4.0 | 12.0 | 0.00 | 0.29 | 0.06 | 63 | 1002.5 |
| 20260504233031 | 50 | 219 | 3.0 | 9.0 | 0.00 | 0.29 | 0.06 | 61 | 1002.3 |
| 20260504231540 | 50 | 256 | 2.0 | 7.0 | 0.00 | 0.29 | 0.06 | 60 | 1002.2 |
| 20260504230029 | 51 | 261 | 6.0 | 14.0 | 0.00 | 0.29 | 0.06 | 59 | 1002.1 |
| 20260504224529 | 51 | 253 | 4.0 | 14.0 | 0.00 | 0.37 | 0.06 | 59 | 1002.0 |
| 20260504223030 | 52 | 260 | 8.0 | 14.0 | 0.00 | 0.37 | 0.06 | 57 | 1001.8 |
| 20260504221530 | 52 | 279 | 7.0 | 17.0 | 0.00 | 0.37 | 0.06 | 56 | 1001.5 |
| 20260504220030 | 53 | 258 | 10.0 | 18.0 | 0.00 | 0.37 | 0.06 | 53 | 1001.4 |
| 20260504214535 | 53 | 256 | 11.0 | 25.0 | 0.00 | 0.59 | 0.06 | 54 | 1001.3 |
| 20260504213030 | 54 | 280 | 11.0 | 24.0 | 0.00 | 0.59 | 0.06 | 53 | 1001.1 |
| 20260504211531 | 53 | 268 | 18.0 | 30.0 | 0.00 | 0.59 | 0.06 | 52 | 1000.9 |
| 20260504210030 | 53 | 254 | 14.0 | 33.0 | 0.00 | 0.59 | 0.06 | 57 | 1000.8 |
| 20260504204601 | 53 | 289 | 14.0 | 26.0 | 0.00 | 0.60 | 0.06 | 59 | 1000.5 |
| 20260504203030 | 53 | 273 | 20.0 | 31.0 | 0.00 | 0.60 | 0.06 | 60 | 1000.3 |
| 20260504201530 | 53 | 271 | 22.0 | 34.0 | 0.00 | 0.60 | 0.06 | 62 | 999.9 |
| 20260504200034 | 52 | 262 | 12.0 | 29.0 | 0.00 | 0.60 | 0.06 | 66 | 999.5 |
| 20260504194536 | 53 | 265 | 14.0 | 27.0 | 0.00 | 0.61 | 0.06 | 67 | 999.2 |
| 20260504193028 | 51 | 260 | 15.0 | 26.0 | 0.00 | 0.61 | 0.06 | 71 | 998.9 |
| 20260504191530 | 50 | 288 | 15.0 | 25.0 | 0.00 | 0.61 | 0.06 | 72 | 998.8 |
| 20260504190034 | 50 | 275 | 14.0 | 25.0 | 0.00 | 0.61 | 0.06 | 75 | 998.5 |
| 20260504184530 | 48 | 262 | 14.0 | 24.0 | 0.00 | 0.64 | 0.06 | 77 | 998.5 |
| 20260504183030 | 47 | 284 | 13.0 | 23.0 | 0.00 | 0.64 | 0.06 | 78 | 998.2 |
| 20260504181530 | 47 | 291 | 12.0 | 24.0 | 0.00 | 0.64 | 0.06 | 80 | 997.9 |
| 20260504180028 | 46 | 277 | 11.0 | 26.0 | 0.00 | 0.64 | 0.06 | 80 | 997.8 |
| 20260504174527 | 46 | 264 | 13.0 | 22.0 | 0.00 | 0.64 | 0.06 | 80 | 997.5 |
| 20260504173028 | 45 | 258 | 13.0 | 24.0 | 0.00 | 0.64 | 0.06 | 82 | 997.2 |
| 20260504171540 | 45 | 277 | 14.0 | 22.0 | 0.00 | 0.64 | 0.06 | 82 | 996.9 |
| 20260504081530 | 39 | 181 | 14.0 | 26.0 | 0.00 | 0.61 | 0.03 | 89 | 977.0 |